,,,PA_Meas_PMT16A,,PR_Meas_QMR101_102,,RH_Meas_QMH101,,SR_Meas_QMS101,,TA_Meas_QMH101,,GenWind,,GenWind,
date,time,status,PA,status,PR,status,RH,status,SR,status,TA,status,DirAvg,status,SpdAvg,
2012-01-02, 00:00:04,VALID,1000.05,VALID,0,VALID,93.5849,VALID,0,VALID,23.4866,VALID,67,VALID,0,
2012-01-02, 00:01:04,VALID,1000.03,VALID,0,VALID,93.6231,VALID,0,VALID,23.4866,VALID,67,VALID,0,
2012-01-02, 00:02:04,VALID,1000.04,VALID,0,VALID,93.646,VALID,0,VALID,23.4866,VALID,67,VALID,0,
2012-01-02, 00:03:04,VALID,1000.05,VALID,0,VALID,93.6994,VALID,0,VALID,23.4866,VALID,67,VALID,0,
2012-01-02, 00:04:04,VALID,1000.05,VALID,0,VALID,93.7146,VALID,0,VALID,23.4653,VALID,67,VALID,0.623828,
2012-01-02, 00:05:04,VALID,1000.02,VALID,0,VALID,93.7223,VALID,0,VALID,23.4458,VALID,70,VALID,0.791797,
2012-01-02, 00:06:04,VALID,1000.04,VALID,0,VALID,93.7299,VALID,0,VALID,23.4671,VALID,77,VALID,0.616016,
2012-01-02, 00:07:04,VALID,999.987,VALID,0,VALID,93.707,VALID,0,VALID,23.4866,VALID,103,VALID,0.718359,
2012-01-02, 00:08:04,VALID,1000.04,VALID,0,VALID,93.7146,VALID,0,VALID,23.4866,VALID,103,VALID,0.536719,
2012-01-02, 00:09:04,VALID,1000.02,VALID,0,VALID,93.7223,VALID,0,VALID,23.4866,VALID,103,VALID,0.367578,
2012-01-02, 00:10:04,VALID,1000.04,VALID,0,VALID,93.707,VALID,0,VALID,23.4866,VALID,103,VALID,0.392578,
2012-01-02, 00:11:04,VALID,1000.04,VALID,0,VALID,93.6917,VALID,0,VALID,23.4866,VALID,103,VALID,0.53125,
2012-01-02, 00:12:04,VALID,1000.03,VALID,0,VALID,93.6994,VALID,0,VALID,23.5061,VALID,103,VALID,0.0242187,
2012-01-02, 00:13:04,VALID,1000.04,VALID,0,VALID,93.7146,VALID,0,VALID,23.4866,VALID,103,VALID,0,
2012-01-02, 00:14:04,VALID,1000.01,VALID,0,VALID,93.6917,VALID,0,VALID,23.4866,VALID,103,VALID,0.0269531,
2012-01-02, 00:15:04,VALID,999.988,VALID,0,VALID,93.6994,VALID,0,VALID,23.5061,VALID,103,VALID,0,
2012-01-02, 00:16:04,VALID,999.994,VALID,0,VALID,93.7299,VALID,0,VALID,23.4866,VALID,103,VALID,0,
2012-01-02, 00:17:04,VALID,1000,VALID,0,VALID,93.7604,VALID,0,VALID,23.5061,VALID,103,VALID,0,
2012-01-02, 00:18:04,VALID,999.949,VALID,0,VALID,93.768,VALID,0,VALID,23.4866,VALID,103,VALID,0,
2012-01-02, 00:19:04,VALID,999.947,VALID,0,VALID,93.7909,VALID,0,VALID,23.4866,VALID,103,VALID,0,
2012-01-02, 00:20:04,VALID,999.935,VALID,0,VALID,93.7909,VALID,0,VALID,23.5061,VALID,103,VALID,0,
2012-01-02, 00:21:04,VALID,999.905,VALID,0,VALID,93.8138,VALID,0,VALID,23.5061,VALID,103,VALID,0,
2012-01-02, 00:22:04,VALID,999.934,VALID,0,VALID,93.8214,VALID,0,VALID,23.5061,VALID,103,VALID,0,
2012-01-02, 00:23:04,VALID,999.907,VALID,0,VALID,93.8443,VALID,0,VALID,23.4848,VALID,103,VALID,0,
2012-01-02, 00:24:04,VALID,999.913,VALID,0,VALID,93.8672,VALID,0,VALID,23.5061,VALID,103,VALID,0,
2012-01-02, 00:25:04,VALID,999.907,VALID,0,VALID,93.8901,VALID,0,VALID,23.5061,VALID,103,VALID,0,
2012-01-02, 00:26:04,VALID,999.89,VALID,0,VALID,93.913,VALID,0,VALID,23.5061,VALID,103,VALID,0,
2012-01-02, 00:27:04,VALID,999.875,VALID,0,VALID,93.913,VALID,0,VALID,23.4866,VALID,103,VALID,0.417969,
2012-01-02, 00:28:04,VALID,999.857,VALID,0,VALID,93.913,VALID,0,VALID,23.5061,VALID,103,VALID,0.501953,
2012-01-02, 00:29:04,VALID,999.815,VALID,0,VALID,93.8977,VALID,0,VALID,23.5061,VALID,103,VALID,0.452734,
2012-01-02, 00:30:04,VALID,999.749,VALID,0,VALID,93.8748,VALID,0,VALID,23.4866,VALID,109,VALID,0.508594,
2012-01-02, 00:31:04,VALID,999.742,VALID,0,VALID,93.8443,VALID,0,VALID,23.5061,VALID,109,VALID,0.297266,
2012-01-02, 00:32:04,VALID,999.711,VALID,0,VALID,93.8291,VALID,0,VALID,23.4866,VALID,109,VALID,0.291406,
2012-01-02, 00:33:04,VALID,999.676,VALID,0,VALID,93.8062,VALID,0,VALID,23.4866,VALID,109,VALID,0.0664063,
2012-01-02, 00:34:04,VALID,999.65,VALID,0,VALID,93.7833,VALID,0,VALID,23.4866,VALID,109,VALID,0,
2012-01-02, 00:35:04,VALID,999.626,VALID,0,VALID,93.7757,VALID,0,VALID,23.4671,VALID,109,VALID,0.0800781,
2012-01-02, 00:36:04,VALID,999.615,VALID,0,VALID,93.8062,VALID,0,VALID,23.4653,VALID,109,VALID,0,
2012-01-02, 00:37:04,VALID,999.606,VALID,0,VALID,93.7833,VALID,0,VALID,23.4866,VALID,109,VALID,0.0285156,
2012-01-02, 00:38:04,VALID,999.578,VALID,0,VALID,93.7985,VALID,0,VALID,23.4653,VALID,109,VALID,0.343359,
2012-01-02, 00:39:04,VALID,999.573,VALID,0,VALID,93.8062,VALID,0,VALID,23.5061,VALID,109,VALID,0.607422,
2012-01-02, 00:40:04,VALID,999.59,VALID,0,VALID,93.7909,VALID,0,VALID,23.5061,VALID,88,VALID,0.94375,
2012-01-02, 00:41:04,VALID,999.562,VALID,0,VALID,93.7604,VALID,0,VALID,23.5256,VALID,88,VALID,1.04961,
2012-01-02, 00:42:04,VALID,999.547,VALID,0,VALID,93.7375,VALID,0,VALID,23.5256,VALID,88,VALID,0.744922,
2012-01-02, 00:43:04,VALID,999.593,VALID,0,VALID,93.7146,VALID,0,VALID,23.5256,VALID,88,VALID,0.840625,
2012-01-02, 00:44:04,VALID,999.617,VALID,0,VALID,93.6994,VALID,0,VALID,23.5256,VALID,88,VALID,0.432422,
2012-01-02, 00:45:04,VALID,999.61,VALID,0,VALID,93.6688,VALID,0,VALID,23.5061,VALID,88,VALID,0,
2012-01-02, 00:46:04,VALID,999.586,VALID,0,VALID,93.6612,VALID,0,VALID,23.5061,VALID,88,VALID,0,
2012-01-02, 00:47:04,VALID,999.599,VALID,0,VALID,93.6765,VALID,0,VALID,23.5061,VALID,88,VALID,0,
2012-01-02, 00:48:04,VALID,999.582,VALID,0,VALID,93.6765,VALID,0,VALID,23.4866,VALID,88,VALID,0,
2012-01-02, 00:49:04,VALID,999.544,VALID,0,VALID,93.6612,VALID,0,VALID,23.4671,VALID,88,VALID,0,
2012-01-02, 00:50:04,VALID,999.523,VALID,0,VALID,93.646,VALID,0,VALID,23.4475,VALID,88,VALID,0,
2012-01-02, 00:51:04,VALID,999.507,VALID,0,VALID,93.6841,VALID,0,VALID,23.4085,VALID,88,VALID,0,
2012-01-02, 00:52:04,VALID,999.513,VALID,0,VALID,93.7223,VALID,0,VALID,23.389,VALID,88,VALID,0,
2012-01-02, 00:53:04,VALID,999.508,VALID,0,VALID,93.7909,VALID,0,VALID,23.4085,VALID,73,VALID,0.0824219,
2012-01-02, 00:54:04,VALID,999.527,VALID,0,VALID,93.8138,VALID,0,VALID,23.4085,VALID,57,VALID,0.612891,
2012-01-02, 00:55:04,VALID,999.535,VALID,0,VALID,93.8443,VALID,0,VALID,23.3695,VALID,52,VALID,0.419141,
2012-01-02, 00:56:04,VALID,999.524,VALID,0,VALID,93.8748,VALID,0,VALID,23.3695,VALID,52,VALID,0.255859,
2012-01-02, 00:57:04,VALID,999.464,VALID,0,VALID,93.8901,VALID,0,VALID,23.35,VALID,52,VALID,0.157422,
2012-01-02, 00:58:04,VALID,999.485,VALID,0,VALID,93.9206,VALID,0,VALID,23.35,VALID,52,VALID,0.000390625,
2012-01-02, 00:59:04,VALID,999.453,VALID,0,VALID,93.9359,VALID,0,VALID,23.35,VALID,52,VALID,0.363672,
2012-01-02, 01:00:04,VALID,999.418,VALID,0,VALID,93.9664,VALID,0,VALID,23.3305,VALID,68,VALID,0.781641,
2012-01-02, 01:01:04,VALID,999.431,VALID,0,VALID,93.974,VALID,0,VALID,23.35,VALID,78,VALID,0.73125,
2012-01-02, 01:02:04,VALID,999.429,VALID,0,VALID,93.9817,VALID,0,VALID,23.35,VALID,106,VALID,0.798437,
2012-01-02, 01:03:04,VALID,999.415,VALID,0,VALID,94.0045,VALID,0,VALID,23.3305,VALID,108,VALID,0.548437,
2012-01-02, 01:04:04,VALID,999.407,VALID,0,VALID,93.9817,VALID,0,VALID,23.35,VALID,108,VALID,0.228906,
2012-01-02, 01:05:04,VALID,999.395,VALID,0,VALID,93.9511,VALID,0,VALID,23.3305,VALID,108,VALID,0,
2012-01-02, 01:06:04,VALID,999.405,VALID,0,VALID,93.9206,VALID,0,VALID,23.2915,VALID,108,VALID,0,
2012-01-02, 01:07:04,VALID,999.398,VALID,0,VALID,93.8672,VALID,0,VALID,23.2702,VALID,108,VALID,0,
2012-01-02, 01:08:04,VALID,999.364,VALID,0,VALID,93.8977,VALID,0,VALID,23.2719,VALID,108,VALID,0,
2012-01-02, 01:09:04,VALID,999.363,VALID,0,VALID,93.8901,VALID,0,VALID,23.2915,VALID,82,VALID,0,
2012-01-02, 01:10:04,VALID,999.346,VALID,0,VALID,93.8825,VALID,0,VALID,23.2702,VALID,62,VALID,0.379297,
2012-01-02, 01:11:04,VALID,999.34,VALID,0,VALID,93.9054,VALID,0,VALID,23.2702,VALID,59,VALID,0.845312,
2012-01-02, 01:12:04,VALID,999.32,VALID,0,VALID,93.8977,VALID,0,VALID,23.2897,VALID,66,VALID,0.886719,
2012-01-02, 01:13:04,VALID,999.34,VALID,0,VALID,93.8672,VALID,0,VALID,23.2702,VALID,79,VALID,1.00156,
2012-01-02, 01:14:04,VALID,999.332,VALID,0,VALID,93.8748,VALID,0,VALID,23.2915,VALID,96,VALID,0.924609,
2012-01-02, 01:15:04,VALID,999.313,VALID,0,VALID,93.852,VALID,0,VALID,23.2915,VALID,106,VALID,1.16992,
2012-01-02, 01:16:04,VALID,999.304,VALID,0,VALID,93.7985,VALID,0,VALID,23.2915,VALID,107,VALID,0.688281,
2012-01-02, 01:17:05,VALID,999.288,VALID,0,VALID,93.7985,VALID,0,VALID,23.2915,VALID,128,VALID,0.866406,
2012-01-02, 01:18:05,VALID,999.262,VALID,0,VALID,93.768,VALID,0,VALID,23.2915,VALID,129,VALID,0.798828,
2012-01-02, 01:19:05,VALID,999.24,VALID,0,VALID,93.7528,VALID,0.104696,VALID,23.2702,VALID,139,VALID,0.761328,
2012-01-02, 01:20:05,VALID,999.184,VALID,0,VALID,93.7375,VALID,0,VALID,23.2915,VALID,139,VALID,0.338672,
2012-01-02, 01:21:05,VALID,999.197,VALID,0,VALID,93.6917,VALID,0,VALID,23.2915,VALID,138,VALID,0.386328,
2012-01-02, 01:22:05,VALID,999.173,VALID,0,VALID,93.6841,VALID,0,VALID,23.2719,VALID,138,VALID,0,
2012-01-02, 01:23:05,VALID,999.193,VALID,0,VALID,93.6612,VALID,0,VALID,23.2524,VALID,128,VALID,0.427734,
2012-01-02, 01:24:05,VALID,999.163,VALID,0,VALID,93.6383,VALID,0,VALID,23.2329,VALID,128,VALID,0.428906,
2012-01-02, 01:25:05,VALID,999.129,VALID,0,VALID,93.6154,VALID,0,VALID,23.1939,VALID,128,VALID,0.393359,
2012-01-02, 01:26:05,VALID,999.165,VALID,0,VALID,93.6154,VALID,0,VALID,23.1744,VALID,128,VALID,0.390234,
2012-01-02, 01:27:05,VALID,999.148,VALID,0,VALID,93.6688,VALID,0,VALID,23.1744,VALID,128,VALID,0.454688,
2012-01-02, 01:28:05,VALID,999.118,VALID,0,VALID,93.6994,VALID,0,VALID,23.1744,VALID,128,VALID,0.405859,
2012-01-02, 01:29:05,VALID,999.116,VALID,0,VALID,93.707,VALID,0,VALID,23.1336,VALID,128,VALID,0.229687,
2012-01-02, 01:30:05,VALID,999.089,VALID,0,VALID,93.6917,VALID,0,VALID,23.1159,VALID,128,VALID,0.371875,
2012-01-02, 01:31:05,VALID,999.049,VALID,0,VALID,93.7451,VALID,0,VALID,23.1159,VALID,128,VALID,0.500391,
2012-01-02, 01:32:05,VALID,999.048,VALID,0,VALID,93.7757,VALID,0,VALID,23.0946,VALID,85,VALID,0.696094,
2012-01-02, 01:33:05,VALID,999.07,VALID,0,VALID,93.7757,VALID,0,VALID,23.0751,VALID,85,VALID,0.709766,
2012-01-02, 01:34:05,VALID,999.042,VALID,0,VALID,93.7528,VALID,0,VALID,23.0769,VALID,85,VALID,0.871094,
2012-01-02, 01:35:05,VALID,999.065,VALID,0,VALID,93.8062,VALID,0,VALID,23.0573,VALID,86,VALID,0.952734,
2012-01-02, 01:36:05,VALID,999.077,VALID,0,VALID,93.8672,VALID,0,VALID,23.0361,VALID,84,VALID,0.656641,
2012-01-02, 01:37:05,VALID,999.07,VALID,0,VALID,93.8977,VALID,0,VALID,23.0769,VALID,47,VALID,0.690625,
2012-01-02, 01:38:05,VALID,999.054,VALID,0,VALID,93.8825,VALID,0,VALID,23.0361,VALID,34,VALID,0.572656,
2012-01-02, 01:39:05,VALID,999.035,VALID,0,VALID,93.8672,VALID,0,VALID,22.9971,VALID,7,VALID,1.02148,
2012-01-02, 01:40:05,VALID,999.038,VALID,0,VALID,93.9206,VALID,0.104696,VALID,22.9758,VALID,12,VALID,1.09727,
2012-01-02, 01:41:05,VALID,999.045,VALID,0,VALID,93.9359,VALID,0,VALID,22.9776,VALID,25,VALID,1.04609,
2012-01-02, 01:42:05,VALID,999,VALID,0,VALID,93.974,VALID,0,VALID,22.9971,VALID,25,VALID,0.992578,
2012-01-02, 01:43:05,VALID,998.979,VALID,0,VALID,94.0198,VALID,0,VALID,22.9971,VALID,25,VALID,0.810938,
2012-01-02, 01:44:05,VALID,998.989,VALID,0,VALID,94.0274,VALID,0,VALID,22.9988,VALID,25,VALID,0.690625,
2012-01-02, 01:45:05,VALID,998.934,VALID,0,VALID,94.058,VALID,0,VALID,22.9793,VALID,25,VALID,0.655859,
2012-01-02, 01:46:05,VALID,998.923,VALID,0,VALID,94.0961,VALID,0.104696,VALID,22.9776,VALID,25,VALID,0.669141,
2012-01-02, 01:47:05,VALID,998.932,VALID,0,VALID,94.0885,VALID,0,VALID,22.9793,VALID,25,VALID,0.596094,
2012-01-02, 01:48:05,VALID,998.932,VALID,0,VALID,94.119,VALID,0,VALID,22.9385,VALID,25,VALID,0.650391,
2012-01-02, 01:49:05,VALID,998.917,VALID,0,VALID,94.1343,VALID,0,VALID,22.919,VALID,25,VALID,0.769531,
2012-01-02, 01:50:05,VALID,998.883,VALID,0,VALID,94.1266,VALID,0.104696,VALID,22.9403,VALID,25,VALID,0.869922,
2012-01-02, 01:51:05,VALID,998.853,VALID,0,VALID,94.1648,VALID,0,VALID,22.8995,VALID,37,VALID,0.835938,
2012-01-02, 01:52:05,VALID,998.859,VALID,0,VALID,94.1724,VALID,0,VALID,22.9403,VALID,37,VALID,0.60625,
2012-01-02, 01:53:05,VALID,998.855,VALID,0,VALID,94.1877,VALID,0,VALID,22.9403,VALID,37,VALID,0.645703,
2012-01-02, 01:54:05,VALID,998.828,VALID,0,VALID,94.1953,VALID,0.104696,VALID,22.9208,VALID,37,VALID,0.633203,
2012-01-02, 01:55:05,VALID,998.79,VALID,0,VALID,94.2258,VALID,0,VALID,22.919,VALID,37,VALID,0.574219,
2012-01-02, 01:56:05,VALID,998.789,VALID,0,VALID,94.2182,VALID,0,VALID,22.8995,VALID,37,VALID,0.717188,
2012-01-02, 01:57:05,VALID,998.766,VALID,0,VALID,94.2029,VALID,0,VALID,22.8605,VALID,36,VALID,0.817187,
2012-01-02, 01:58:05,VALID,998.754,VALID,0,VALID,94.1953,VALID,0,VALID,22.8818,VALID,36,VALID,0.989844,
2012-01-02, 01:59:05,VALID,998.746,VALID,0,VALID,94.2029,VALID,0,VALID,22.8623,VALID,37,VALID,0.960938,
2012-01-02, 02:00:05,VALID,998.728,VALID,0,VALID,94.2411,VALID,0,VALID,22.8623,VALID,51,VALID,0.908594,
2012-01-02, 02:01:05,VALID,998.715,VALID,0,VALID,94.2487,VALID,0,VALID,22.8623,VALID,64,VALID,0.774219,
2012-01-02, 02:02:05,VALID,998.706,VALID,0,VALID,94.264,VALID,0,VALID,22.8623,VALID,64,VALID,0.401563,
2012-01-02, 02:03:05,VALID,998.703,VALID,0,VALID,94.2563,VALID,0,VALID,22.8427,VALID,64,VALID,0.670703,
2012-01-02, 02:04:05,VALID,998.707,VALID,0,VALID,94.2868,VALID,0,VALID,22.8818,VALID,64,VALID,0.633594,
2012-01-02, 02:05:05,VALID,998.69,VALID,0,VALID,94.2792,VALID,0,VALID,22.841,VALID,64,VALID,0.401563,
2012-01-02, 02:06:05,VALID,998.669,VALID,0,VALID,94.2716,VALID,0,VALID,22.8427,VALID,64,VALID,0.214844,
2012-01-02, 02:07:05,VALID,998.677,VALID,0,VALID,94.2868,VALID,0,VALID,22.8215,VALID,64,VALID,0.255469,
2012-01-02, 02:08:05,VALID,998.669,VALID,0,VALID,94.2792,VALID,0,VALID,22.8215,VALID,64,VALID,0.422266,
2012-01-02, 02:09:05,VALID,998.663,VALID,0,VALID,94.3021,VALID,0,VALID,22.8427,VALID,64,VALID,0.666406,
2012-01-02, 02:10:05,VALID,998.639,VALID,0,VALID,94.2945,VALID,0,VALID,22.841,VALID,93,VALID,0.729297,
2012-01-02, 02:11:05,VALID,998.625,VALID,0,VALID,94.3097,VALID,0,VALID,22.8623,VALID,99,VALID,0.622266,
2012-01-02, 02:12:05,VALID,998.636,VALID,0,VALID,94.325,VALID,0,VALID,22.8427,VALID,99,VALID,0.386719,
2012-01-02, 02:13:05,VALID,998.624,VALID,0,VALID,94.3326,VALID,0,VALID,22.841,VALID,99,VALID,0.430469,
2012-01-02, 02:14:05,VALID,998.58,VALID,0,VALID,94.3479,VALID,0,VALID,22.8427,VALID,99,VALID,0,
2012-01-02, 02:15:05,VALID,998.561,VALID,0,VALID,94.3403,VALID,0,VALID,22.8427,VALID,99,VALID,0.316797,
2012-01-02, 02:16:05,VALID,998.574,VALID,0,VALID,94.325,VALID,0,VALID,22.8427,VALID,99,VALID,0.173438,
2012-01-02, 02:17:05,VALID,998.549,VALID,0,VALID,94.3174,VALID,0,VALID,22.7825,VALID,99,VALID,0.211719,
2012-01-02, 02:18:05,VALID,998.514,VALID,0,VALID,94.3174,VALID,0,VALID,22.8037,VALID,95,VALID,0.43125,
2012-01-02, 02:19:05,VALID,998.487,VALID,0,VALID,94.3021,VALID,0,VALID,22.763,VALID,91,VALID,0.346875,
2012-01-02, 02:20:05,VALID,998.506,VALID,0,VALID,94.3174,VALID,0,VALID,22.7435,VALID,91,VALID,0.458984,
2012-01-02, 02:21:05,VALID,998.479,VALID,0,VALID,94.3097,VALID,0.104696,VALID,22.7452,VALID,91,VALID,0.303516,
2012-01-02, 02:22:05,VALID,998.466,VALID,0,VALID,94.325,VALID,0,VALID,22.7647,VALID,91,VALID,0.0503906,
2012-01-02, 02:23:05,VALID,998.43,VALID,0,VALID,94.3326,VALID,0,VALID,22.7435,VALID,91,VALID,0.0304688,
2012-01-02, 02:24:05,VALID,998.421,VALID,0,VALID,94.3631,VALID,0,VALID,22.7452,VALID,91,VALID,0.0617188,
2012-01-02, 02:25:05,VALID,998.402,VALID,0,VALID,94.3555,VALID,0,VALID,22.7435,VALID,91,VALID,0.282813,
2012-01-02, 02:26:05,VALID,998.402,VALID,0,VALID,94.386,VALID,0,VALID,22.7647,VALID,91,VALID,0.421484,
2012-01-02, 02:27:05,VALID,998.365,VALID,0,VALID,94.3708,VALID,0,VALID,22.7435,VALID,91,VALID,0.267188,
2012-01-02, 02:28:05,VALID,998.377,VALID,0,VALID,94.4013,VALID,0,VALID,22.763,VALID,91,VALID,0,
2012-01-02, 02:29:05,VALID,998.354,VALID,0,VALID,94.4089,VALID,0,VALID,22.7842,VALID,91,VALID,0.252734,
2012-01-02, 02:30:05,VALID,998.307,VALID,0,VALID,94.4165,VALID,0.104696,VALID,22.7825,VALID,91,VALID,0.363672,
2012-01-02, 02:31:05,VALID,998.338,VALID,0,VALID,94.4242,VALID,0,VALID,22.802,VALID,91,VALID,0.119141,
2012-01-02, 02:32:05,VALID,998.328,VALID,0,VALID,94.4165,VALID,0,VALID,22.802,VALID,91,VALID,0.279297,
2012-01-02, 02:33:05,VALID,998.314,VALID,0,VALID,94.4318,VALID,0.104696,VALID,22.802,VALID,91,VALID,0,
2012-01-02, 02:34:05,VALID,998.329,VALID,0,VALID,94.4089,VALID,0,VALID,22.8037,VALID,93,VALID,0.498047,
2012-01-02, 02:35:05,VALID,998.34,VALID,0,VALID,94.4089,VALID,0,VALID,22.8427,VALID,111,VALID,0.436328,
2012-01-02, 02:36:05,VALID,998.311,VALID,0,VALID,94.4089,VALID,0,VALID,22.8215,VALID,113,VALID,0.817969,
2012-01-02, 02:37:05,VALID,998.328,VALID,0,VALID,94.4089,VALID,0,VALID,22.841,VALID,115,VALID,0.595312,
2012-01-02, 02:38:05,VALID,998.28,VALID,0,VALID,94.386,VALID,0,VALID,22.8818,VALID,115,VALID,0.623438,
2012-01-02, 02:39:05,VALID,998.309,VALID,0,VALID,94.3555,VALID,0,VALID,22.8818,VALID,115,VALID,0.486328,
2012-01-02, 02:40:05,VALID,998.308,VALID,0,VALID,94.325,VALID,0,VALID,22.8605,VALID,115,VALID,0.607422,
2012-01-02, 02:41:05,VALID,998.286,VALID,0,VALID,94.3097,VALID,0,VALID,22.8605,VALID,115,VALID,0.576563,
2012-01-02, 02:42:05,VALID,998.316,VALID,0,VALID,94.3021,VALID,0,VALID,22.8818,VALID,115,VALID,0.533594,
2012-01-02, 02:43:05,VALID,998.35,VALID,0,VALID,94.2945,VALID,0,VALID,22.88,VALID,115,VALID,0.339453,
2012-01-02, 02:44:05,VALID,998.334,VALID,0,VALID,94.2487,VALID,0,VALID,22.9013,VALID,115,VALID,0.227344,
2012-01-02, 02:45:05,VALID,998.337,VALID,0,VALID,94.2258,VALID,0,VALID,22.9013,VALID,115,VALID,0.182031,
2012-01-02, 02:46:05,VALID,998.325,VALID,0,VALID,94.1953,VALID,0,VALID,22.8818,VALID,115,VALID,0,
2012-01-02, 02:47:05,VALID,998.316,VALID,0,VALID,94.1648,VALID,0,VALID,22.841,VALID,115,VALID,0,
2012-01-02, 02:48:05,VALID,998.327,VALID,0,VALID,94.1343,VALID,0.104696,VALID,22.8215,VALID,115,VALID,0,
2012-01-02, 02:49:05,VALID,998.349,VALID,0,VALID,94.1419,VALID,0,VALID,22.802,VALID,115,VALID,0,
2012-01-02, 02:50:05,VALID,998.312,VALID,0,VALID,94.1571,VALID,0,VALID,22.8427,VALID,115,VALID,0,
2012-01-02, 02:51:05,VALID,998.359,VALID,0,VALID,94.1419,VALID,0,VALID,22.8427,VALID,115,VALID,0.390625,
2012-01-02, 02:52:05,VALID,998.372,VALID,0,VALID,94.1571,VALID,0,VALID,22.8215,VALID,115,VALID,0.145703,
2012-01-02, 02:53:05,VALID,998.356,VALID,0,VALID,94.1571,VALID,0,VALID,22.8427,VALID,115,VALID,0,
2012-01-02, 02:54:05,VALID,998.361,VALID,0,VALID,94.1571,VALID,0,VALID,22.841,VALID,115,VALID,0,
2012-01-02, 02:55:05,VALID,998.346,VALID,0,VALID,94.1419,VALID,0,VALID,22.8427,VALID,115,VALID,0,
2012-01-02, 02:56:05,VALID,998.342,VALID,0,VALID,94.1419,VALID,0,VALID,22.841,VALID,115,VALID,0,
2012-01-02, 02:57:05,VALID,998.309,VALID,0,VALID,94.0961,VALID,0,VALID,22.8623,VALID,115,VALID,0,
2012-01-02, 02:58:05,VALID,998.34,VALID,0,VALID,94.0808,VALID,0,VALID,22.8623,VALID,170,VALID,0.739453,
2012-01-02, 02:59:05,VALID,998.338,VALID,0,VALID,94.0274,VALID,0,VALID,22.8623,VALID,170,VALID,0.69375,
2012-01-02, 03:00:05,VALID,998.292,VALID,0,VALID,93.9893,VALID,0,VALID,22.8818,VALID,170,VALID,0.441406,
2012-01-02, 03:01:05,VALID,998.303,VALID,0,VALID,93.9435,VALID,0,VALID,22.8818,VALID,170,VALID,0.4875,
2012-01-02, 03:02:05,VALID,998.281,VALID,0,VALID,93.9054,VALID,0,VALID,22.9013,VALID,170,VALID,0.419141,
2012-01-02, 03:03:05,VALID,998.267,VALID,0,VALID,93.8596,VALID,0,VALID,22.88,VALID,170,VALID,0,
2012-01-02, 03:04:05,VALID,998.285,VALID,0,VALID,93.8138,VALID,0,VALID,22.8605,VALID,170,VALID,0.0503906,
2012-01-02, 03:05:05,VALID,998.308,VALID,0,VALID,93.768,VALID,0,VALID,22.8818,VALID,170,VALID,0.394141,
2012-01-02, 03:06:05,VALID,998.294,VALID,0,VALID,93.7375,VALID,0,VALID,22.8818,VALID,170,VALID,0,
2012-01-02, 03:07:05,VALID,998.304,VALID,0,VALID,93.6841,VALID,0,VALID,22.8605,VALID,170,VALID,0,
2012-01-02, 03:08:05,VALID,998.34,VALID,0,VALID,93.6994,VALID,0,VALID,22.8623,VALID,170,VALID,0,
2012-01-02, 03:09:05,VALID,998.355,VALID,0,VALID,93.6536,VALID,0,VALID,22.841,VALID,170,VALID,0,
2012-01-02, 03:10:05,VALID,998.341,VALID,0,VALID,93.6688,VALID,0,VALID,22.8623,VALID,170,VALID,0,
2012-01-02, 03:11:05,VALID,998.373,VALID,0,VALID,93.6688,VALID,0,VALID,22.8623,VALID,170,VALID,0,
2012-01-02, 03:12:05,VALID,998.405,VALID,0,VALID,93.6765,VALID,0,VALID,22.8623,VALID,170,VALID,0,
2012-01-02, 03:13:05,VALID,998.396,VALID,0,VALID,93.6917,VALID,0,VALID,22.8818,VALID,170,VALID,0,
2012-01-02, 03:14:05,VALID,998.402,VALID,0,VALID,93.6688,VALID,0,VALID,22.8818,VALID,170,VALID,0,
2012-01-02, 03:15:05,VALID,998.412,VALID,0,VALID,93.6841,VALID,0,VALID,22.8818,VALID,170,VALID,0,
2012-01-02, 03:16:05,VALID,998.416,VALID,0,VALID,93.6917,VALID,0,VALID,22.88,VALID,170,VALID,0,
2012-01-02, 03:17:05,VALID,998.464,VALID,0,VALID,93.707,VALID,0.104696,VALID,22.9013,VALID,170,VALID,0,
2012-01-02, 03:18:05,VALID,998.46,VALID,0,VALID,93.6841,VALID,0,VALID,22.9013,VALID,170,VALID,0,
2012-01-02, 03:19:05,VALID,998.471,VALID,0,VALID,93.6688,VALID,0,VALID,22.8605,VALID,170,VALID,0,
2012-01-02, 03:20:05,VALID,998.501,VALID,0,VALID,93.6383,VALID,0,VALID,22.8623,VALID,170,VALID,0,
2012-01-02, 03:21:05,VALID,998.499,VALID,0,VALID,93.6765,VALID,0,VALID,22.8427,VALID,170,VALID,0,
2012-01-02, 03:22:05,VALID,998.514,VALID,0,VALID,93.707,VALID,0,VALID,22.8232,VALID,170,VALID,0,
2012-01-02, 03:23:05,VALID,998.559,VALID,0,VALID,93.7833,VALID,0,VALID,22.8037,VALID,170,VALID,0,
2012-01-02, 03:24:05,VALID,998.555,VALID,0,VALID,93.8062,VALID,0,VALID,22.8037,VALID,123,VALID,0,
2012-01-02, 03:25:05,VALID,998.546,VALID,0,VALID,93.8138,VALID,0,VALID,22.8037,VALID,85,VALID,0,
2012-01-02, 03:26:05,VALID,998.561,VALID,0,VALID,93.8291,VALID,0,VALID,22.7435,VALID,72,VALID,0.611328,
2012-01-02, 03:27:05,VALID,998.56,VALID,0,VALID,93.7833,VALID,0,VALID,22.7257,VALID,51,VALID,0.615234,
2012-01-02, 03:28:05,VALID,998.557,VALID,0,VALID,93.7985,VALID,0,VALID,22.6867,VALID,51,VALID,0.499219,
2012-01-02, 03:29:05,VALID,998.563,VALID,0,VALID,93.8291,VALID,0,VALID,22.6477,VALID,51,VALID,0.624609,
2012-01-02, 03:30:05,VALID,998.565,VALID,0,VALID,93.9206,VALID,0,VALID,22.6264,VALID,51,VALID,0.729297,
2012-01-02, 03:31:05,VALID,998.546,VALID,0,VALID,93.9893,VALID,0,VALID,22.6672,VALID,51,VALID,0.721094,
2012-01-02, 03:32:05,VALID,998.542,VALID,0,VALID,94.0808,VALID,0,VALID,22.7079,VALID,51,VALID,0.715625,
2012-01-02, 03:33:05,VALID,998.574,VALID,0,VALID,94.1037,VALID,0,VALID,22.7045,VALID,51,VALID,0.715234,
2012-01-02, 03:34:05,VALID,998.586,VALID,0,VALID,94.1114,VALID,0,VALID,22.7257,VALID,51,VALID,0.621484,
2012-01-02, 03:35:05,VALID,998.584,VALID,0,VALID,94.119,VALID,0,VALID,22.724,VALID,52,VALID,0.562109,
2012-01-02, 03:36:05,VALID,998.599,VALID,0,VALID,94.1495,VALID,0,VALID,22.7452,VALID,57,VALID,0.762109,
2012-01-02, 03:37:05,VALID,998.592,VALID,0,VALID,94.1343,VALID,0,VALID,22.7257,VALID,62,VALID,0.780469,
2012-01-02, 03:38:05,VALID,998.622,VALID,0,VALID,94.119,VALID,0,VALID,22.7452,VALID,68,VALID,0.861719,
2012-01-02, 03:39:05,VALID,998.634,VALID,0,VALID,94.1419,VALID,0,VALID,22.7257,VALID,68,VALID,0.744531,
2012-01-02, 03:40:05,VALID,998.613,VALID,0,VALID,94.1419,VALID,0,VALID,22.7062,VALID,68,VALID,0.399609,
2012-01-02, 03:41:05,VALID,998.619,VALID,0,VALID,94.119,VALID,0,VALID,22.7062,VALID,68,VALID,0,
2012-01-02, 03:42:05,VALID,998.645,VALID,0,VALID,94.1419,VALID,0,VALID,22.7062,VALID,68,VALID,0,
2012-01-02, 03:43:05,VALID,998.696,VALID,0,VALID,94.0961,VALID,0,VALID,22.6867,VALID,68,VALID,0,
2012-01-02, 03:44:05,VALID,998.675,VALID,0,VALID,94.1266,VALID,0,VALID,22.6867,VALID,68,VALID,0,
2012-01-02, 03:45:05,VALID,998.653,VALID,0,VALID,94.1343,VALID,0,VALID,22.6672,VALID,68,VALID,0,
2012-01-02, 03:46:05,VALID,998.651,VALID,0,VALID,94.1648,VALID,0,VALID,22.6672,VALID,68,VALID,0.00585938,
2012-01-02, 03:47:05,VALID,998.652,VALID,0,VALID,94.1877,VALID,0,VALID,22.6867,VALID,68,VALID,0.259766,
2012-01-02, 03:48:05,VALID,998.659,VALID,0,VALID,94.2182,VALID,0,VALID,22.7062,VALID,68,VALID,0.457812,
2012-01-02, 03:49:05,VALID,998.706,VALID,0,VALID,94.2334,VALID,0,VALID,22.7257,VALID,68,VALID,0,